Volver al catálogo

STARLINK-34011

ActivoComunicacionesVLEO
NORAD 63845·PAYLOAD·🇺🇸 United States

Lanzado May 7, 2025 desde Cape Canaveral Space Force Station

Loading…

Próximos Pases (próximas 24 horas)

TLE

ActualizadoSource: CelesTrak SupGP

Época: Sep 14, 2026, 20:57 UTC

1 63845C 25093K   26257.87340278  .00020650  00000+0  74805-3 0  2572
2 63845  42.9992  89.8980 0001346 274.0499 341.4732 15.27563069    13

Sigue STARLINK-34011 en tiempo real con AllMySat

Download on the App Store